Change the Weather History Date:

Tuesday, May 7, 2013

  Actual Average Record
Temperature  
Mean Temperature 56 °F -  
Max Temperature 74 °F 69 °F 89 °F (2014)
Min Temperature 39 °F 43 °F 25 °F (1989)
Degree Days  
Heating Degree Days 9    
Growing Degree Days 6 (Base 50)    
Moisture  
Dew Point 44 °F    
Average Humidity 67    
Maximum Humidity 99    
Minimum Humidity 29    
Precipitation  
Precipitation 0.00 in - - ()
Sea Level Pressure  
Sea Level Pressure 30.03 in    
Wind  
Wind Speed 2 mph (SSW)    
Max Wind Speed 13 mph    
Max Gust Speed 17 mph    
Visibility 8 miles    
Events      
Averages and records for this station are not official NWS values.
T = Trace of Precipitation, MM = Missing Value Source: NWS Daily Summary

Daily Weather History Graph

Daily Weather History Graph

Search for Another Location

Airport or City:

Trip Planner

Search our weather history database for the weather conditions in past years. The results will help you decide how hot, cold, wet, or windy it might be!

Date:

Astronomy

May. 07, 2013 Rise Set
Actual Time 6:08 AM CDT 8:29 PM CDT
Civil Twilight 5:36 AM CDT 9:01 PM CDT
Nautical Twilight 4:57 AM CDT 9:40 PM CDT
Astronomical Twilight 4:14 AM CDT 10:24 PM CDT
Moon 4:46 AM CDT (5/7) 6:28 PM CDT (5/7)
Length of Visible Light 15h 24m
Length of Day
14h 21m
Waning Crescent, 5% of the Moon is Illuminated
May 7
Waning Crescent
May 9
New
May 17
First Quarter
May 24
Full
May 31
Last Quarter

Hourly Weather History & Observations

Time (CDT) Temp. Dew Point Humidity Pressure Visibility Wind Dir Wind Speed Gust Speed Precip Events Conditions
12:15 AM 47.3 °F 45.9 °F 95% 30.08 in 7.0 mi Calm Calm - N/A   Clear
12:35 AM 46.4 °F 45.0 °F 95% 30.08 in 7.0 mi Calm Calm - N/A   Clear
12:55 AM 46.2 °F 44.8 °F 95% 30.08 in 5.0 mi Calm Calm - N/A   Clear
1:15 AM 45.1 °F 44.1 °F 96% 30.08 in 5.0 mi Calm Calm - N/A   Clear
1:35 AM 45.9 °F 45.0 °F 97% 30.07 in 5.0 mi Calm Calm - N/A   Clear
1:55 AM 44.6 °F 43.7 °F 97% 30.06 in 5.0 mi Calm Calm - N/A   Clear
2:15 AM 43.7 °F 42.8 °F 97% 30.06 in 4.0 mi Calm Calm - N/A   Clear
2:35 AM 43.9 °F 43.2 °F 97% 30.06 in 1.8 mi Calm Calm - N/A   Mist
2:55 AM 44.1 °F 43.7 °F 99% 30.06 in 4.0 mi Calm Calm - N/A   Clear
3:15 AM 43.3 °F 42.8 °F 98% 30.06 in 5.0 mi Calm Calm - N/A   Clear
3:35 AM 42.4 °F 41.7 °F 97% 30.06 in 5.0 mi Calm Calm - N/A   Clear
3:55 AM 41.9 °F 41.2 °F 97% 30.06 in 4.0 mi Calm Calm - N/A   Clear
4:15 AM 41.4 °F 40.6 °F 97% 30.06 in 4.0 mi Calm Calm - N/A   Clear
4:35 AM 41.4 °F 41.0 °F 99% 30.06 in 4.0 mi Calm Calm - N/A   Clear
4:55 AM 40.8 °F 40.1 °F 97% 30.06 in 3.0 mi Calm Calm - N/A   Clear
5:15 AM 40.5 °F 40.1 °F 99% 30.06 in 3.0 mi Calm Calm - N/A   Clear
5:35 AM 40.5 °F 39.9 °F 98% 30.06 in 3.0 mi Calm Calm - N/A   Scattered Clouds
5:55 AM 40.3 °F 39.9 °F 99% 30.06 in 3.0 mi Calm Calm - N/A   Clear
6:15 AM 39.4 °F 38.8 °F 98% 30.06 in 2.0 mi Calm Calm - N/A   Clear
6:35 AM 39.4 °F 38.8 °F 98% 30.07 in 2.5 mi Calm Calm - N/A   Clear
6:55 AM 40.3 °F 40.1 °F 99% 30.07 in 3.0 mi Calm Calm - N/A   Clear
7:15 AM 41.0 °F 40.5 °F 98% 30.08 in 4.0 mi Calm Calm - N/A   Clear
7:35 AM 42.1 °F 41.7 °F 99% 30.08 in 4.0 mi Calm Calm - N/A   Clear
7:55 AM 43.7 °F 43.2 °F 98% 30.08 in 5.0 mi Calm Calm - N/A   Clear
8:15 AM 46.0 °F 44.8 °F 95% 30.08 in 5.0 mi Calm Calm - N/A   Clear
8:35 AM 48.7 °F 46.9 °F 93% 30.09 in 5.0 mi Calm Calm - N/A   Clear
8:55 AM 52.0 °F 49.1 °F 90% 30.09 in 7.0 mi Calm Calm - N/A   Clear
9:15 AM 55.2 °F 50.9 °F 85% 30.09 in 7.0 mi Calm Calm - N/A   Clear
9:35 AM 58.6 °F 52.3 °F 80% 30.09 in 7.0 mi Calm Calm - N/A   Clear
9:55 AM 61.9 °F 51.4 °F 69% 30.08 in 7.0 mi South 4.6 mph - N/A   Clear
10:15 AM 62.6 °F 50.2 °F 64% 30.08 in 10.0 mi SSW 4.6 mph - N/A   Clear
10:35 AM 63.9 °F 50.7 °F 62% 30.08 in 10.0 mi Calm Calm - N/A   Clear
10:55 AM 65.1 °F 50.9 °F 60% 30.08 in 10.0 mi South 3.5 mph - N/A   Scattered Clouds
11:15 AM 66.0 °F 51.1 °F 59% 30.07 in 10.0 mi South 8.1 mph - N/A   Scattered Clouds
11:35 AM 67.1 °F 50.5 °F 55% 30.06 in 10.0 mi South 9.2 mph - N/A   Scattered Clouds
11:55 AM 66.9 °F 49.3 °F 53% 30.06 in 10.0 mi SSE 6.9 mph - N/A   Scattered Clouds
12:15 PM 67.6 °F 49.3 °F 52% 30.05 in 10.0 mi South 4.6 mph - N/A   Scattered Clouds
12:35 PM 68.5 °F 48.4 °F 49% 30.05 in 10.0 mi South 4.6 mph - N/A   Clear
12:55 PM 69.6 °F 48.0 °F 46% 30.04 in 10.0 mi SSW 4.6 mph - N/A   Scattered Clouds
1:15 PM 69.8 °F 45.1 °F 41% 30.04 in 10.0 mi South 5.8 mph - N/A   Scattered Clouds
1:35 PM 70.9 °F 44.8 °F 39% 30.03 in 10.0 mi SSW 5.8 mph - N/A   Scattered Clouds
1:55 PM 72.0 °F 44.8 °F 38% 30.02 in 10.0 mi South 5.8 mph - N/A   Clear
2:15 PM 73.0 °F 43.5 °F 35% 30.02 in 10.0 mi South 8.1 mph 17.3 mph N/A   Clear
2:35 PM 71.8 °F 43.0 °F 35% 30.01 in 10.0 mi SSW 8.1 mph - N/A   Scattered Clouds
2:55 PM 73.6 °F 42.4 °F 33% 30.01 in 10.0 mi South 8.1 mph - N/A   Scattered Clouds
3:15 PM 72.5 °F 40.5 °F 31% 30.00 in 10.0 mi South 9.2 mph - N/A   Scattered Clouds
3:35 PM 73.6 °F 40.8 °F 31% 30.00 in 10.0 mi SW 8.1 mph - N/A   Scattered Clouds
3:55 PM 72.5 °F 41.0 °F 32% 29.99 in 10.0 mi South 12.7 mph - N/A   Scattered Clouds
4:15 PM 73.4 °F 39.2 °F 29% 29.99 in 10.0 mi SSW 11.5 mph - N/A   Scattered Clouds
4:35 PM 73.4 °F 39.7 °F 30% 29.98 in 10.0 mi SSE 6.9 mph - N/A   Scattered Clouds
4:55 PM 72.5 °F 38.8 °F 29% 29.98 in 10.0 mi SSW 9.2 mph - N/A   Scattered Clouds
5:15 PM 72.5 °F 38.1 °F 29% 29.98 in 10.0 mi SSW 8.1 mph - N/A   Clear
5:35 PM 72.3 °F 38.3 °F 29% 29.97 in 10.0 mi Calm Calm - N/A   Clear
5:55 PM 72.1 °F 39.0 °F 30% 29.97 in 10.0 mi WSW 3.5 mph - N/A   Scattered Clouds
6:15 PM 72.7 °F 39.9 °F 31% 29.97 in 10.0 mi WSW 6.9 mph - N/A   Scattered Clouds
6:35 PM 72.0 °F 40.5 °F 32% 29.96 in 10.0 mi WSW 5.8 mph - N/A   Mostly Cloudy
6:55 PM 70.7 °F 42.1 °F 35% 29.96 in 10.0 mi WNW 5.8 mph - N/A   Mostly Cloudy
7:15 PM 69.8 °F 43.0 °F 38% 29.96 in 10.0 mi WNW 4.6 mph - N/A   Scattered Clouds
7:35 PM 68.5 °F 43.3 °F 40% 29.96 in 10.0 mi West 3.5 mph - N/A   Clear
7:55 PM 67.3 °F 43.9 °F 43% 29.96 in 10.0 mi Calm Calm - N/A   Clear
8:15 PM 66.2 °F 44.2 °F 45% 29.96 in 10.0 mi Calm Calm - N/A   Clear
8:35 PM 65.3 °F 43.9 °F 46% 29.96 in 10.0 mi Calm Calm - N/A   Clear
8:55 PM 61.3 °F 46.9 °F 59% 29.96 in 10.0 mi Calm Calm - N/A   Mostly Cloudy
9:15 PM 61.5 °F 46.6 °F 58% 29.96 in 10.0 mi Calm Calm - N/A   Scattered Clouds
9:35 PM 59.9 °F 46.6 °F 61% 29.97 in 10.0 mi Calm Calm - N/A   Clear
9:55 PM 58.5 °F 49.8 °F 73% 29.97 in 10.0 mi Calm Calm - N/A   Scattered Clouds
10:15 PM 60.4 °F 46.8 °F 61% 29.98 in 10.0 mi East 8.1 mph - N/A   Overcast
10:35 PM 59.0 °F 47.7 °F 66% 29.97 in 10.0 mi Calm Calm - N/A   Overcast
10:55 PM 58.1 °F 49.3 °F 72% 29.97 in 10.0 mi SW 5.8 mph - N/A   Mostly Cloudy
11:15 PM 57.6 °F 49.8 °F 75% 29.97 in 10.0 mi Calm Calm - N/A   Mostly Cloudy
11:35 PM 57.4 °F 49.5 °F 75% 29.97 in 10.0 mi South 3.5 mph - N/A   Overcast
11:55 PM 56.5 °F 50.2 °F 79% 29.97 in 10.0 mi Calm Calm - N/A   Overcast